[[{"header":{"parameterUnit":"m.s-1","parameterCategory":1,"la1":30.2991,"la2":30.254,"lo1":-89.0895,"lo2":-89.0444,"dy":0.0017,"dx":0.0017,"nx":28,"ny":28,"refTime":"2025-07-29T09:00:00:Z","depth":0,"parameterNumber":2,"parameterNumberName":"U-component_of_WINDS"},"data":[0,0,0,0,0,0,0,0,0,0,0,0,0,0,0,0,0,0,0,0,0,0,0,0,0,0,0,0,0,0,0,0,0,0,0,0,0,0,0,0,0,0,0,0,0,0,0,0,0,0,0,0,0,0,0,0,0,0,1.7509,1.7509,0,1.7514,1.7514,1.7514,1.7507,1.7507,1.7507,1.7507,1.7512,1.7513,1.7513,0,0,0,0,0,0,0,0,0,0,0,0,0,1.7499,1.7499,1.7509,1.7509,1.7509,1.7514,1.7514,1.7514,1.7507,1.7507,1.7507,1.7506,1.7512,1.7512,1.7513,0,0,0,0,0,0,0,0,0,0,0,0,0,1.7504,1.7499,1.7509,1.7507,1.7506,1.7514,1.7514,1.7514,1.7507,1.7507,1.7507,1.7506,1.7512,1.7512,1.7513,1.7523,0,0,1.7515,1.7515,0,0,0,0,0,0,0,0,1.7503,1.7504,1.7507,1.7507,1.7507,1.751,1.7512,1.7517,1.7507,1.7507,1.7507,1.7506,1.7512,1.7512,1.7514,1.7524,1.7524,1.7515,1.7515,1.7515,1.7515,0,0,0,0,0,0,0,1.7503,1.7504,1.7511,1.7507,1.7507,1.7507,1.7507,1.7513,1.7511,1.7507,1.7507,1.7507,1.7512,1.7513,1.7514,1.7524,1.7515,1.7515,1.7516,1.7516,1.7548,1.7548,0,0,0,0,0,0,1.7503,1.7503,1.7511,1.7511,1.7504,1.7507,1.7507,1.7509,1.7511,1.7511,1.7507,1.7507,1.7513,1.7513,1.7514,1.7529,1.7515,1.7516,1.7516,1.7547,1.7548,1.7549,0,0,0,0,0,0,1.7502,1.7503,1.7511,1.7507,1.7508,1.7508,1.751,1.7509,1.7511,1.7511,1.7511,1.7509,1.7512,1.7513,1.7522,1.7529,1.7516,1.7517,1.7547,1.7548,1.7548,1.7558,0,0,0,0,0,0,1.7502,1.7503,1.7506,1.7507,1.7508,1.7517,1.751,1.751,1.7512,1.7511,1.7513,1.7513,1.7512,1.7521,1.7523,1.753,1.7517,1.7546,1.7547,1.7548,1.7557,1.7559,1.7561,0,0,0,0,0,1.7502,1.7508,1.7506,1.7507,1.7511,1.7518,1.7518,1.7516,1.7512,1.7516,1.7517,1.7513,1.7529,1.7522,1.7524,1.7531,1.7546,1.7547,1.7548,1.7557,1.7559,1.7561,0,0,0,0,0,0,1.7506,1.7507,1.7506,1.7512,1.7515,1.7516,1.752,1.7518,1.7523,1.7522,1.752,1.7521,1.7531,1.7532,1.7525,1.7544,1.7537,1.7538,1.7543,1.7545,1.7547,1.7547,1.7517,0,0,0,0,0,1.7508,1.7512,1.7513,1.7519,1.752,1.7521,1.7523,1.7522,1.7525,1.7526,1.7528,1.7531,1.7538,1.7541,1.7547,1.7558,1.756,1.7564,1.7566,1.7568,1.7569,1.758,1.7582,1.7552,1.7552,1.7552,0,0,1.7511,1.7512,1.7515,1.752,1.7522,1.7528,1.7521,1.7527,1.7532,1.7527,1.7536,1.7538,1.7542,1.7554,1.7559,1.7555,1.7578,1.7569,1.757,1.7571,1.7581,1.7584,1.7586,1.7553,1.7553,1.7553,0,0,1.752,1.7521,1.7527,1.753,1.7534,1.7535,1.7537,1.754,1.7541,1.7551,1.7548,1.7555,1.7565,1.7569,1.7573,1.759,1.7587,1.7592,1.7601,1.7611,1.7614,1.7616,1.7625,1.7627,1.7593,1.7593,1.7593,0,1.7524,1.7532,1.7531,1.7538,1.7542,1.7539,1.7547,1.755,1.7556,1.7559,1.7555,1.757,1.7573,1.7587,1.7592,1.7594,1.7598,1.7591,1.7613,1.7616,1.7618,1.7626,1.7629,1.7594,1.7594,1.7594,1.7593,0,1.7538,1.7544,1.7549,1.7556,1.756,1.7567,1.757,1.7575,1.7575,1.7577,1.7589,1.7592,1.76,1.7604,1.7602,1.7619,1.7617,1.7613,1.7606,1.7621,1.7629,1.7632,1.7595,1.7594,1.7594,1.7594,0,0,1.7546,1.7556,1.7558,1.7563,1.757,1.7575,1.7584,1.7593,1.7599,1.7604,1.7613,1.7624,1.7622,1.7626,1.7626,1.7635,1.7652,1.763,1.7631,1.7636,1.7675,1.7679,1.7682,1.7651,1.7652,1.7652,1.7675,0,1.7558,1.7573,1.7575,1.7589,1.7597,1.7597,1.7606,1.7612,1.7615,1.7624,1.7628,1.7637,1.7632,1.7635,1.7644,1.7648,1.766,1.7646,1.7662,1.7662,1.7662,1.7686,1.7688,1.771,1.7678,1.7679,1.7679,0,1.7571,1.7579,1.7594,1.7604,1.7608,1.7615,1.7626,1.7633,1.7642,1.7644,1.7651,1.7652,1.7664,1.7657,1.7676,1.7667,1.7674,1.7678,1.7679,1.768,1.7672,1.769,1.7716,1.772,1.7683,1.7683,1.7683,0,1.7579,1.7593,1.7605,1.7609,1.762,1.7626,1.7631,1.764,1.7647,1.7656,1.7661,1.7672,1.7678,1.7688,1.7693,1.7686,1.7713,1.7705,1.7717,1.7717,1.7722,1.7722,1.7752,1.7725,1.7725,1.7725,1.7725,0,1.7591,1.7601,1.7609,1.7617,1.763,1.7633,1.7646,1.7652,1.766,1.7671,1.7671,1.7681,1.7687,1.7698,1.7702,1.7719,1.7722,1.7726,1.7727,1.7726,1.7726,1.7731,1.773,1.7725,1.7725,1.7725,1.7725,0,1.7601,1.7606,1.762,1.7631,1.7635,1.7644,1.7654,1.7663,1.7668,1.7682,1.7685,1.7693,1.7708,1.7714,1.7731,1.7734,1.7754,1.7753,1.7751,1.7752,1.7765,1.7764,1.7799,1.7806,1.7773,1.7774,1.7774,0,1.7608,1.7617,1.763,1.7637,1.7643,1.7654,1.7662,1.7668,1.7676,1.769,1.7698,1.7712,1.7724,1.7748,1.7756,1.7771,1.7771,1.7783,1.7773,1.7774,1.7774,1.7774,1.7777,1.7785,1.7785,1.7785,1.7785,0,1.7622,1.7626,1.7637,1.765,1.766,1.767,1.7681,1.7687,1.7695,1.7705,1.772,1.773,1.7749,1.7765,1.7781,1.7788,1.7789,1.7789,1.7793,1.7792,1.7792,1.7795,1.7758,1.7788,1.7787,1.7787,1.7787,1.7787,1.7632,1.7641,1.7653,1.7667,1.7676,1.7687,1.7697,1.7705,1.7718,1.7734,1.7738,1.7755,1.7769,1.779,1.7799,1.7814,1.7811,1.7816,1.7817,1.7819,1.7821,1.7789,1.7816,1.7816,1.7816,1.7816,1.7816,0,1.7648,1.7657,1.7669,1.7685,1.7697,1.7698,1.7711,1.7721,1.7736,1.7749,1.7762,1.7782,1.7799,1.781,1.7828,1.7838,1.784,1.7843,1.7843,1.7845,1.7821,1.7817,1.7842,1.7842,1.7842,1.7842,1.7842,1.7842,1.7657,1.7674,1.768,1.7703,1.7712,1.7729,1.7737,1.7749,1.7759,1.7782,1.7796,1.7804,1.7817,1.7837,1.7853,1.7857,1.7864,1.7868,1.7871,1.7849,1.7846,1.7844,1.784,1.7869,1.7869,1.7894,1.7894,1.7895]},{"header":{"parameterUnit":"m.s-1","parameterCategory":1,"la1":30.2991,"la2":30.254,"lo1":-89.0895,"lo2":-89.0444,"dy":0.0017,"dx":0.0017,"nx":28,"ny":28,"refTime":"2025-07-29T09:00:00:Z","depth":0,"parameterNumber":3,"parameterNumberName":"V-component_of_WINDS"},"data":[0,0,0,0,0,0,0,0,0,0,0,0,0,0,0,0,0,0,0,0,0,0,0,0,0,0,0,0,0,0,0,0,0,0,0,0,0,0,0,0,0,0,0,0,0,0,0,0,0,0,0,0,0,0,0,0,0,0,-2.6619,-2.6618,0,-2.647,-2.6468,-2.6466,-2.6507,-2.651,-2.6513,-2.6516,-2.6352,-2.6345,-2.6338,0,0,0,0,0,0,0,0,0,0,0,0,0,-2.6932,-2.6926,-2.6619,-2.6618,-2.6616,-2.647,-2.6468,-2.6466,-2.6506,-2.651,-2.6514,-2.6517,-2.6354,-2.6346,-2.6337,0,0,0,0,0,0,0,0,0,0,0,0,0,-2.679,-2.6924,-2.662,-2.6619,-2.6617,-2.647,-2.6468,-2.6465,-2.6506,-2.651,-2.6515,-2.6519,-2.6357,-2.6346,-2.6336,-2.6178,0,0,-2.6303,-2.6298,0,0,0,0,0,0,0,0,-2.6798,-2.6779,-2.6621,-2.6618,-2.6617,-2.6512,-2.6518,-2.6368,-2.6504,-2.6548,-2.6516,-2.6521,-2.6401,-2.6387,-2.6348,-2.617,-2.6163,-2.6302,-2.6295,-2.6291,-2.6288,0,0,0,0,0,0,0,-2.6808,-2.6785,-2.656,-2.6618,-2.6616,-2.6623,-2.6608,-2.649,-2.645,-2.6544,-2.6547,-2.6529,-2.64,-2.6358,-2.6344,-2.6161,-2.6302,-2.6292,-2.6286,-2.6282,-2.5846,-2.5841,0,0,0,0,0,0,-2.6821,-2.6793,-2.6565,-2.6555,-2.6721,-2.6614,-2.6597,-2.6541,-2.6451,-2.6442,-2.6525,-2.6532,-2.6375,-2.6357,-2.6339,-2.6148,-2.6291,-2.6281,-2.6274,-2.5851,-2.5845,-2.5839,0,0,0,0,0,0,-2.6827,-2.68,-2.6571,-2.6675,-2.6647,-2.6603,-2.654,-2.6535,-2.6494,-2.6437,-2.643,-2.6491,-2.6378,-2.6354,-2.6218,-2.6143,-2.6276,-2.6266,-2.5857,-2.5849,-2.5842,-2.5765,0,0,0,0,0,0,-2.6836,-2.6802,-2.6743,-2.6674,-2.6641,-2.6455,-2.6535,-2.6529,-2.6476,-2.6483,-2.6403,-2.6393,-2.6379,-2.6234,-2.6208,-2.6131,-2.6257,-2.5864,-2.5854,-2.5845,-2.5774,-2.5756,-2.574,0,0,0,0,0,-2.6847,-2.6725,-2.674,-2.6712,-2.6567,-2.6451,-2.6431,-2.6421,-2.647,-2.6409,-2.6374,-2.6396,-2.6156,-2.622,-2.619,-2.6109,-2.5868,-2.5856,-2.5845,-2.5782,-2.576,-2.5741,0,0,0,0,0,0,-2.6782,-2.6716,-2.6732,-2.6584,-2.6523,-2.6458,-2.6381,-2.6397,-2.6318,-2.6327,-2.6314,-2.6296,-2.6157,-2.612,-2.6192,-2.5952,-2.6019,-2.6001,-2.5981,-2.5959,-2.5943,-2.5954,-2.6248,0,0,0,0,0,-2.6752,-2.6666,-2.6611,-2.6486,-2.6455,-2.6423,-2.6372,-2.637,-2.6305,-2.6278,-2.6232,-2.6165,-2.6075,-2.6015,-2.5929,-2.577,-2.5753,-2.5699,-2.5683,-2.5669,-2.5653,-2.5566,-2.5542,-2.5802,-2.5802,-2.5802,0,0,-2.6686,-2.6639,-2.6585,-2.6472,-2.6425,-2.6333,-2.6401,-2.6301,-2.6233,-2.6261,-2.6132,-2.6096,-2.602,-2.5873,-2.5805,-2.5837,-2.5578,-2.5654,-2.5644,-2.5635,-2.5552,-2.5527,-2.5505,-2.5794,-2.5795,-2.5797,0,0,-2.6519,-2.6476,-2.6368,-2.632,-2.6249,-2.6229,-2.6203,-2.6136,-2.6114,-2.5985,-2.6005,-2.5922,-2.5767,-2.5713,-2.5665,-2.5481,-2.5498,-2.5453,-2.5363,-2.5279,-2.5258,-2.524,-2.5174,-2.515,-2.5438,-2.5438,-2.5438,0,-2.6445,-2.6312,-2.6309,-2.6208,-2.6157,-2.6185,-2.6073,-2.6026,-2.5928,-2.5892,-2.593,-2.5738,-2.5688,-2.5529,-2.5485,-2.5445,-2.5413,-2.5461,-2.5263,-2.5244,-2.5227,-2.5163,-2.5139,-2.5433,-2.5433,-2.5434,-2.5434,0,-2.6224,-2.6131,-2.6052,-2.5962,-2.5903,-2.5797,-2.5776,-2.5715,-2.5719,-2.5694,-2.5562,-2.5505,-2.5408,-2.537,-2.5371,-2.521,-2.5233,-2.5267,-2.5334,-2.5197,-2.5137,-2.5113,-2.5425,-2.5427,-2.5429,-2.543,0,0,-2.6009,-2.5923,-2.5893,-2.5853,-2.5779,-2.5705,-2.5601,-2.551,-2.5458,-2.5391,-2.5302,-2.5172,-2.5204,-2.5149,-2.5144,-2.5071,-2.4929,-2.5114,-2.5112,-2.508,-2.4748,-2.4721,-2.4693,-2.4941,-2.4936,-2.4933,-2.4754,0,-2.5835,-2.5656,-2.5651,-2.5484,-2.5398,-2.5424,-2.5333,-2.5276,-2.5251,-2.5172,-2.5143,-2.5051,-2.51,-2.5068,-2.4997,-2.4961,-2.4861,-2.4974,-2.4855,-2.4851,-2.4872,-2.4662,-2.4633,-2.4467,-2.473,-2.4726,-2.4723,0,-2.5608,-2.5538,-2.5365,-2.5305,-2.5268,-2.5187,-2.5104,-2.5029,-2.4965,-2.4952,-2.4893,-2.49,-2.479,-2.4864,-2.4712,-2.4789,-2.474,-2.4716,-2.4709,-2.4695,-2.4777,-2.4641,-2.4414,-2.4388,-2.4687,-2.469,-2.4692,0,-2.5468,-2.533,-2.5209,-2.5174,-2.5101,-2.5043,-2.5009,-2.495,-2.4896,-2.4823,-2.4788,-2.4702,-2.4654,-2.4586,-2.4568,-2.4624,-2.4417,-2.4488,-2.4401,-2.4401,-2.4354,-2.4356,-2.4113,-2.4325,-2.4325,-2.4326,-2.4326,0,-2.5273,-2.5165,-2.5145,-2.507,-2.4951,-2.4946,-2.4826,-2.4796,-2.4744,-2.4661,-2.4678,-2.46,-2.4582,-2.45,-2.4486,-2.4362,-2.434,-2.4325,-2.4322,-2.4322,-2.4324,-2.4288,-2.4299,-2.4319,-2.4321,-2.4322,-2.4323,0,-2.5094,-2.5077,-2.4947,-2.489,-2.4873,-2.4787,-2.4737,-2.4664,-2.4643,-2.4539,-2.4514,-2.4479,-2.4383,-2.436,-2.4245,-2.4235,-2.4089,-2.4097,-2.4112,-2.4111,-2.4025,-2.4033,-2.3748,-2.3711,-2.3949,-2.3946,-2.3945,0,-2.4971,-2.4889,-2.4825,-2.4774,-2.4739,-2.4654,-2.4601,-2.4594,-2.4537,-2.4459,-2.4395,-2.4303,-2.4228,-2.4074,-2.4036,-2.3948,-2.3954,-2.386,-2.394,-2.3944,-2.3951,-2.3955,-2.3947,-2.3844,-2.3841,-2.3839,-2.3838,0,-2.4752,-2.4749,-2.4674,-2.4595,-2.4533,-2.447,-2.441,-2.4366,-2.4349,-2.4285,-2.419,-2.4132,-2.4018,-2.3924,-2.3837,-2.3799,-2.3814,-2.3814,-2.3789,-2.3787,-2.3798,-2.379,-2.4068,-2.3819,-2.3821,-2.3823,-2.3824,-2.3824,-2.4596,-2.4526,-2.4471,-2.4386,-2.4342,-2.4286,-2.4215,-2.4187,-2.4109,-2.4018,-2.4017,-2.3913,-2.3852,-2.3737,-2.3694,-2.361,-2.3639,-2.3602,-2.3593,-2.3583,-2.3575,-2.3814,-2.3594,-2.3595,-2.3595,-2.3596,-2.3596,0,-2.4378,-2.4345,-2.4268,-2.4186,-2.4119,-2.4146,-2.4081,-2.4023,-2.3932,-2.3875,-2.3803,-2.3694,-2.3605,-2.3562,-2.3473,-2.3414,-2.3419,-2.3391,-2.3394,-2.3385,-2.3556,-2.3586,-2.3389,-2.3389,-2.3389,-2.3389,-2.3389,-2.3389,-2.4256,-2.4139,-2.4129,-2.3989,-2.3956,-2.3857,-2.3818,-2.3766,-2.3721,-2.36,-2.3528,-2.3502,-2.345,-2.3358,-2.3277,-2.3266,-2.3232,-2.32,-2.3192,-2.3352,-2.3373,-2.3393,-2.3421,-2.3193,-2.3193,-2.3029,-2.3027,-2.3026]}]]